This is the latest recevied weather packets stored in our database for station/object KE8AFF-13. If no packets are shown the sender has not sent any weather packets the latest 1 day(s).
| Time | Temp. | Humidity | Pressure | Rain* | Wind** | Luminosity | Snow |
|---|---|---|---|---|---|---|---|
| 1778001715 | 18.33° C | 75% | 1007.3 hPa | 0 mm | 1.34 m/s, 242° | 99 W/m² | - |
| 1778001415 | 18.89° C | 75% | 1007.4 hPa | 0 mm | 2.24 m/s, 217° | 147 W/m² | - |
| 1778001113 | 18.89° C | 74% | 1007.5 hPa | 0 mm | 1.34 m/s, 321° | 185 W/m² | - |
| 1778000809 | 18.89° C | 74% | 1007.5 hPa | 0 mm | 1.34 m/s, 297° | 95 W/m² | - |
| 1778000507 | 18.89° C | 73% | 1007.4 hPa | 0 mm | 3.13 m/s, 243° | 129 W/m² | - |
| 1778000206 | 18.89° C | 72% | 1007.3 hPa | 0 mm | 1.34 m/s, 154° | 99 W/m² | - |
| 1777999903 | 18.89° C | 71% | 1007.6 hPa | 0 mm | 2.68 m/s, 299° | 143 W/m² | - |
| 1777999598 | 18.89° C | 71% | 1007.5 hPa | 0 mm | 3.58 m/s, 239° | 101 W/m² | - |
| 1777999296 | 18.89° C | 72% | 1007.6 hPa | 0 mm | 2.24 m/s, 217° | 95 W/m² | - |
| 1777998994 | 18.89° C | 72% | 1007.8 hPa | 0 mm | 1.79 m/s, 243° | 93 W/m² | - |
| 1777998692 | 18.89° C | 72% | 1007.7 hPa | 0 mm | 1.79 m/s, 205° | 170 W/m² | - |
| 1777998389 | 18.89° C | 71% | 1007.5 hPa | 0 mm | 2.68 m/s, 253° | 146 W/m² | - |
| 1777998087 | 19.44° C | 71% | 1007.8 hPa | 0 mm | 1.34 m/s, 230° | 159 W/m² | - |
| 1777997784 | 18.89° C | 71% | 1007.9 hPa | 0 mm | 1.79 m/s, 261° | 320 W/m² | - |
| 1777997481 | 18.89° C | 71% | 1007.8 hPa | 0 mm | 2.68 m/s, 231° | 294 W/m² | - |
| 1777997178 | 18.89° C | 71% | 1007.7 hPa | 0 mm | 2.24 m/s, 226° | 275 W/m² | - |
| 1777996876 | 18.89° C | 70% | 1007.7 hPa | 0 mm | 3.13 m/s, 246° | 312 W/m² | - |
| 1777996572 | 18.89° C | 70% | 1007.8 hPa | 0 mm | 2.68 m/s, 186° | 497 W/m² | - |
| 1777996268 | 18.89° C | 71% | 1007.7 hPa | 0 mm | 2.68 m/s, 269° | 218 W/m² | - |
| 1777995964 | 18.89° C | 69% | 1007.9 hPa | 0 mm | 4.92 m/s, 231° | 165 W/m² | - |
| 1777995660 | 18.89° C | 69% | 1007.6 hPa | 0 mm | 4.47 m/s, 266° | 146 W/m² | - |
| 1777995358 | 18.89° C | 70% | 1007.8 hPa | 0 mm | 3.13 m/s, 216° | 197 W/m² | - |
| 1777995055 | 18.89° C | 70% | 1007.7 hPa | 0 mm | 3.13 m/s, 311° | 143 W/m² | - |
| 1777994752 | 18.89° C | 69% | 1007.5 hPa | 0 mm | 3.13 m/s, 219° | 263 W/m² | - |
| 1777994447 | 20° C | 68% | 1007.6 hPa | 0 mm | 4.02 m/s, 257° | 323 W/m² | - |
* Rain latest hour (hover to see other rain measurements)
** Current wind speed in m/s (hover to see current wind gust speed)